Regional Weather Roundup
Issued by NWS

Home | Current Version | Previous Version | Graphics & Text | Print | Product List | Glossary On
Versions: 1 2 3 4 5 6 7 8 9 10 11 12 13 14 15 16 17 18 19 20 21 22 23 24 25 26 27 28 29 30 31 32 33 34 35 36 37 38 39 40 41 42 43 44 45 46 47 48 49 50
000
ASUS43 KMPX 290110
RWRMN
WEATHER ROUNDUP FOR MINNESOTA
NATIONAL WEATHER SERVICE TWIN CITIES/CHANHASSEN MN
800 PM CDT SAT MAY 28 2016


NOTE: "FAIR" INDICATES FEW OR NO CLOUDS BELOW 12,000 FEET WITH NO
SIGNIFICANT WEATHER AND/OR OBSTRUCTIONS TO VISIBILITY. N/A MEANS
CURRENT SKY AND/OR WEATHER CONDITIONS ARE NOT AVAILABLE.

MNZ060>063-068>070-290200-
   Twin Cities Metro

CITY           SKY/WX    TMP DP  RH WIND       PRES   REMARKS
TWIN CITIES    LGT RAIN  64  59  83 VRB5      29.79R
ST PAUL        CLOUDY    65  61  87 NW5       29.79R
CRYSTAL        CLOUDY    65  58  78 VRB3      29.78R
BLAINE         CLOUDY    66  63  88 W3        29.79R
EDEN PRAIRIE   CLOUDY    64  60  87 CALM      29.79R FOG
SOUTH ST PAUL  CLOUDY    65  61  89 CALM      29.79R
LAKE ELMO      CLOUDY    64  63  94 CALM      29.81R
$$
MNZ001>005-007-008-013>017-022>024-027-028-290200-
   Northwest Minnesota

CITY           SKY/WX    TMP DP  RH WIND       PRES   REMARKS
BEMIDJI        RAIN      58  57  96 NW3       29.80S
HALLOCK        LGT RAIN  63  61  94 SE5       29.85R
ROSEAU         LGT RAIN  57  54  88 NE12      29.86R
WARROAD        DRIZZLE   57  54  88 NE10      29.87R
THIEF RVR FALL CLOUDY    61  55  82 N10       29.85R
CROOKSTON      DRIZZLE   61  61 100 NE3       29.84S
FOSSTON        CLOUDY    57  57 100 N6        29.83R FOG
DETROIT LAKES  RAIN      59  57  94 N8        29.83R
MOORHEAD       CLOUDY    63  59  88 N7        29.83R
PARK RAPIDS    CLOUDY    61  57  87 N3        29.80R
MAHNOMEN       LGT RAIN  59  58  96 N7        29.82R
$$
MNZ006-009>011-018-025>026-290200-
   North Central Minnesota

CITY           SKY/WX    TMP DP  RH WIND       PRES   REMARKS
BAUDETTE       CLOUDY    57  54  89 N9        29.83S
FLAG ISLAND    RAIN      57  54  88 NE12      29.86R
INTL FALLS     LGT RAIN  58  56  93 NE7       29.81S VSB 3/4
WASKISH        CLOUDY    59  57  94 CALM      29.81S
BIG FORK       DRIZZLE   61  59  94 CALM      29.80R
LONGVILLE      LGT RAIN  61  57  88 CALM      29.79R
GRAND RAPIDS   CLOUDY    61  58  90 CALM      29.80S
CRANE LAKE     CLOUDY    59  57  94 CALM      29.82S
ORR            CLOUDY    61  57  88 CALM      29.78S FOG
COOK           CLOUDY    61  59  94 CALM      29.81S
WALKER         RAIN      58  57  96 NW5       29.80R
$$
MNZ012-019>021-037-290200-
   Northeast Minnesota

CITY           SKY/WX    TMP DP  RH WIND       PRES   REMARKS
DULUTH         LGT RAIN  55  54  96 SE3       29.81S VSB 3/4
ELY            PTCLDY    63  61  94 NE3       29.80S
HIBBING        LGT RAIN  59  58  96 E3        29.80R
EVELETH        CLOUDY    59  59 100 CALM      29.82S
DULUTH HARBOR  CLOUDY    52  48  87 E5        29.83R
TWO HARBORS    HAZE      57  54  88 CALM      29.80S VSB 1
SILVER BAY     LGT RAIN  59  57  94 CALM      29.79S VSB 1/2
GRAND MARAIS     N/A     45  43  93 N3        29.83R
G MARAIS ARPRT CLOUDY    61  57  88 NE3       29.84R FOG
$$
MNZ029>031-032-039>041-046>048-054>057-064-290200-
   West Central Minnesota

CITY           SKY/WX    TMP DP  RH WIND       PRES   REMARKS
FERGUS FALLS   DRIZZLE   63  57  82 N8        29.79R
WHEATON        CLOUDY    68  59  73 NW6       29.83R
MORRIS         CLOUDY    63  61  94 NW3       29.81R
ALEXANDRIA     CLOUDY    61  56  83 NW7       29.82R
ELBOW LAKE     LGT RAIN  62  59  91 NW7       29.82R
WADENA         DRIZZLE   59  57  94 CALM      29.81R
GLENWOOD       CLOUDY    63  57  82 CALM      29.82R
APPLETON       MOCLDY    66  57  72 NW6       29.81S
BENSON         MOCLDY    64  57  77 NW6       29.81R
ORTONVILLE     MOCLDY    64  57  77 CALM      29.82R
MADISON        CLOUDY    64  61  88 W5        29.82S
WILLMAR        FAIR      64  61  88 NW6       29.82R
$$
MNZ033>034-036-042>043-049>051-058-059-290200-
   Central Minnesota

CITY           SKY/WX    TMP DP  RH WIND       PRES   REMARKS
ST CLOUD       CLOUDY    63  59  87 NW5       29.79S
SAUK CENTRE    CLOUDY    62  57  82 CALM      29.81R
PAYNESVILLE    CLOUDY    64  60  87 CALM      29.81R
AITKIN         MOCLDY    63  55  77 CALM      29.79R
PINE RIVER     CLOUDY    61  59  94 CALM      29.83R
BRAINERD       CLOUDY    60  58  92 W3        29.81R
STAPLES        CLOUDY    61  55  82 NW3       29.81R
LONG PRAIRIE   CLOUDY    61  55  82 W5        29.82R
LITTLE FALLS   CLOUDY    61  55  82 CALM      29.80S
LITCHFIELD     MOCLDY    66  63  88 NW5       29.80S
BUFFALO        CLOUDY    64  59  84 N3        29.80S
MAPLE LAKE     CLOUDY    65  61  88 NW5       29.80S
HUTCHINSON     CLOUDY    66  60  82 NW6       29.81R
$$
MNZ037-044-045-052-053-290200-
   East Central Minnesota

CITY           SKY/WX    TMP DP  RH WIND       PRES   REMARKS
PRINCETON        N/A     64  61  88 NW6       29.79S
MORA           CLOUDY    63  57  82 CALM      29.81R
CAMBRIDGE      CLOUDY    66  55  68 CALM      29.78R
RUSH CITY      LGT RAIN  62  59  91 CALM      29.80R
MOOSE LAKE     CLOUDY    61  59  94 CALM      29.78R
HINCKLEY       CLOUDY    63  61  94 CALM      29.79R
CLOQUET        CLOUDY    55  54  94 E3        29.81R
MCGREGOR       CLOUDY    61  57  88 CALM      29.79F
$$
MNZ071>073-080-081-089-090-097-098-290200-
   Southwest Minnesota

CITY           SKY/WX    TMP DP  RH WIND       PRES   REMARKS
MONTEVIDEO     CLOUDY    64  61  88 CALM      29.83S
GRANITE FALLS  CLOUDY    65  60  82 NW6       29.83S
CANBY          CLOUDY    66  62  85 CALM      29.84S
MARSHALL       CLOUDY    64  59  83 NW9       29.83R
REDWOOD FALLS  CLOUDY    65  58  78 NW6       29.80R
OLIVIA         CLOUDY    70  63  78 NW8       29.80R
PIPESTONE      CLOUDY    63  57  82 N6        29.85R
WINDOM         CLOUDY    64  57  77 CALM      29.82R
WORTHINGTON    CLOUDY    63  59  88 N12       29.83R
JACKSON        CLOUDY    63  59  88 VRB8      29.82R
TRACY          MOCLDY    64  60  86 N7        29.84R
SLAYTON        MOCLDY    63  59  87 N8        29.85R
$$
MNZ065>067-074>077-082>085-091>093-290200-
   South Central Minnesota

CITY           SKY/WX    TMP DP  RH WIND       PRES   REMARKS
MANKATO        CLOUDY    64  61  88 N8        29.79R
NEW ULM        CLOUDY    64  61  88 NW12G18   29.80R
ST JAMES       LGT RAIN  61  55  82 NW12      29.81R
FAIRMONT       CLOUDY    63  61  94 NW8       29.80R
GLENCOE        CLOUDY    65  61  88 N3        29.79R
FARIBAULT      CLOUDY    66  63  88 CALM      29.78S
OWATONNA       CLOUDY    68  63  83 S5        29.79R
WASECA         LGT RAIN  64  61  88 NW7       29.79S
ALBERT LEA     LGT RAIN  64  63  94 CALM      29.79S
$$
MNZ078>079-086>088-094>096-290200-
   Southeast Minnesota

CITY           SKY/WX    TMP DP  RH WIND       PRES   REMARKS
ROCHESTER      CLOUDY    64  61  90 S3        29.80R
RED WING       LGT RAIN  66  64  94 CALM      29.78R
STANTON        CLOUDY    67  62  84 N9        29.78R
DODGE CENTER   CLOUDY    63  63 100 CALM      29.80R
WINONA         RAIN      61  59  94 CALM      29.79F
AUSTIN         CLOUDY    63  59  88 S3        29.80R
PRESTON        CLOUDY    64  59  84 CALM      29.82R
$$
ABBREVIATIONS USED IN REMARKS
   TC - TEMPERATURES IN CELSIUS
  WCI - WIND CHILL INDEX
   HX - HEAT INDEX
  VSB - VISIBILITY
$$




USA.gov is the U.S. government's official web portal to all federal, state and local government web resources and services.